Location: McFarlands Corners
(41.4117°N, 81.3382°W)
Time: 20:52:25
(UTC+00:00)

SR - Pass Details

Date: 16 February 2026
Orbit: 572 x 848 km, 66.7° (Epoch: 8 March)

Event Time Altitude Azimuth Distance (km) Brightness Sun altitude
Rises 11:16:27 0° 243° (WSW) 2,773 - -12.3°
Reaches altitude 10° 11:19:01 10° 258° (WSW) 1,891 - -11.9°
Exits shadow 11:20:25 17° 274° (W) 1,510 ? -11.6°
Maximum altitude 11:22:24 23° 312° (NW) 1,275 ? -11.2°
Drops below altitude 10° 11:25:56 10° 5° (N) 1,973 ? -10.6°
Sets 11:28:40 0° 20° (NNE) 2,925 ? -10.1°
